La Espada — WDI7035 — position and weather

sailwx.info

Track history (hours):
 
Tides and Currents Weather Stations Pressure Air Temp Water Temp Dewpoint Dewpoint Depression Visibility Wind Speed Wind Dir Waves Ship Positions

La Espada

Owner: Harbor Breeze Cruises, Inc., Rancho Palos Verdes, CA. More information available from US FCC via Universal Licensing System and Coast Guard Vessel Documentation Center.

Last reported at 2018-Feb-21 01:50 UTC. Time now 2018-Feb-22 06:55 UTC.
Position N 33°46' W 118°12'.

Length 25 m.

MMSI: 367724740.

Date/timePositionNaut miles runAvg speedWind from/ knotsBaromVisibWave heightAir tempDewpointWater temp
2018-Feb-21 01:50N 33°46' W 118°12'411.1
2018-Feb-21 01:30N 33°42' W 118°11'7 6.4
2018-Feb-21 00:22N 33°41' W 118°19'410.0
2018-Feb-21 00:00N 33°42' W 118°16'5 8.1
2018-Feb-20 23:26N 33°45' W 118°11'1 2.1
2018-Feb-20 23:00N 33°46' W 118°12'2 4.5
2018-Feb-20 22:30N 33°44' W 118°11'714.6
2018-Feb-20 22:00N 33°36' W 118°12'3 4.8
2018-Feb-20 21:26N 33°37' W 118°15'4 8.9
2018-Feb-20 21:00N 33°39' W 118°11'5 9.4
2018-Feb-20 20:30N 33°44' W 118°11'2 3.6
2018-Feb-20 20:01N 33°46' W 118°12'0 0.0
2018-Feb-20 19:31N 33°46' W 118°12'2 4.2
2018-Feb-20 19:00N 33°44' W 118°12'4 7.9
2018-Feb-20 18:30N 33°44' W 118°17'0 0.0
2018-Feb-20 18:00N 33°44' W 118°17'4 8.7
2018-Feb-20 17:30N 33°44' W 118°11'2 0.1
2018-Feb-20 01:48N 33°46' W 118°12'0 1.5
2018-Feb-20 01:30N 33°45' W 118°11'4 8.9
2018-Feb-20 01:01N 33°41' W 118°12'4 7.7
2018-Feb-20 00:30N 33°42' W 118°16'0 0.5
2018-Feb-20 00:00N 33°43' W 118°16'4 8.9
2018-Feb-19 23:30N 33°44' W 118°11'2 3.4
2018-Feb-19 23:00N 33°46' W 118°12'0 0.5
2018-Feb-19 22:30N 33°46' W 118°12'4 8.8
2018-Feb-19 22:00N 33°43' W 118°16'1 1.6
2018-Feb-19 21:30N 33°42' W 118°16'1 1.6
2018-Feb-19 21:01N 33°43' W 118°15'4 7.7
2018-Feb-19 20:28N 33°45' W 118°11'1 2.2
2018-Feb-19 20:01N 33°46' W 118°12'5 9.1
2018-Feb-19 19:30N 33°43' W 118°07'3 5.2
2018-Feb-19 19:00N 33°42' W 118°10'5 9.3
2018-Feb-19 18:30N 33°43' W 118°15'0 0.4
2018-Feb-19 18:00N 33°43' W 118°15'4 7.9
2018-Feb-19 17:31N 33°44' W 118°11'2 3.3
2018-Feb-19 17:00N 33°46' W 118°12'0 0.0
2018-Feb-19 16:30N 33°46' W 118°12'0 0.0
2018-Feb-19 02:07N 33°46' W 118°12'1 4.2
2018-Feb-19 01:58N 33°45' W 118°11'614.2
2018-Feb-19 01:30N 33°42' W 118°18'6 8.6
2018-Feb-19 00:51N 33°44' W 118°24'513.1
2018-Feb-19 00:30N 33°41' W 118°20'4 7.2
2018-Feb-19 00:00N 33°41' W 118°15'611.1
2018-Feb-18 23:30N 33°45' W 118°11'1 1.5
2018-Feb-18 23:00N 33°46' W 118°12'2 3.7
2018-Feb-18 22:30N 33°44' W 118°11'713.6
2018-Feb-18 22:00N 33°38' W 118°15'2 4.8
2018-Feb-18 21:30N 33°40' W 118°17'1 2.4
2018-Feb-18 21:00N 33°40' W 118°16'612.0
2018-Feb-18 20:31N 33°44' W 118°11'2 3.5
2018-Feb-18 20:00N 33°46' W 118°12'0 0.4
2018-Feb-18 19:30N 33°46' W 118°12'4 8.7
2018-Feb-18 19:00N 33°42' W 118°15'5 9.7
2018-Feb-18 18:30N 33°37' W 118°15'2 3.1
2018-Feb-18 18:00N 33°39' W 118°13'611.8
2018-Feb-18 17:30N 33°44' W 118°11'2 3.6
2018-Feb-18 16:59N 33°46' W 118°12'0 0.0
2018-Feb-18 16:30N 33°46' W 118°12'0 0.0
2018-Feb-18 01:51N 33°46' W 118°12'3 8.2
2018-Feb-18 01:31N 33°43' W 118°13'714.5
2018-Feb-18 01:00N 33°43' W 118°22'2 3.9
2018-Feb-18 00:30N 33°44' W 118°24'510.4
2018-Feb-18 00:00N 33°42' W 118°18'612.4
2018-Feb-17 23:30N 33°44' W 118°11'2 3.9
2018-Feb-17 23:00N 33°46' W 118°12'3 6.5
2018-Feb-17 22:30N 33°43' W 118°14'815.7
2018-Feb-17 22:00N 33°43' W 118°23'1 1.5
2018-Feb-17 21:30N 33°43' W 118°23'713.4
2018-Feb-17 21:00N 33°40' W 118°16'713.0
2018-Feb-17 20:30N 33°45' W 118°12'0 0.6
2018-Feb-17 20:00N 33°46' W 118°12'713.6
2018-Feb-17 19:31N 33°39' W 118°11'3 5.0
2018-Feb-17 19:00N 33°37' W 118°13'2 4.2
2018-Feb-17 18:30N 33°38' W 118°15'3 6.3
2018-Feb-17 18:00N 33°40' W 118°12'4 8.9
2018-Feb-17 17:30N 33°44' W 118°11'2 3.0
2018-Feb-17 16:59N 33°46' W 118°12'0 0.0
2018-Feb-17 16:30N 33°46' W 118°12'0 0.0
2018-Feb-16 20:31N 33°46' W 118°12'0 0.0
2018-Feb-16 20:30N 33°46' W 118°12'2 4.7
2018-Feb-16 20:00N 33°44' W 118°13'3 6.9
2018-Feb-16 19:30N 33°44' W 118°17'1 1.4
2018-Feb-16 19:01N 33°44' W 118°16'1 1.4
2018-Feb-16 18:30N 33°44' W 118°17'0 0.0
2018-Feb-16 18:00N 33°44' W 118°17'510.0
2018-Feb-16 17:30N 33°44' W 118°11'2 3.0
2018-Feb-16 17:00N 33°46' W 118°12'0 0.0
2018-Feb-16 01:48N 33°46' W 118°12'0 0.0
2018-Feb-16 01:30N 33°46' W 118°12'0 0.0
2018-Feb-16 01:00N 33°46' W 118°12'0 0.0
2018-Feb-16 00:30N 33°46' W 118°12'0 0.0
2018-Feb-16 00:00N 33°46' W 118°12'0 0.0
2018-Feb-15 23:31N 33°46' W 118°12'0 0.0
2018-Feb-15 23:00N 33°46' W 118°12'0 0.0
2018-Feb-15 22:30N 33°46' W 118°12'0 0.0
2018-Feb-15 22:00N 33°46' W 118°12'0 0.0
2018-Feb-15 21:30N 33°46' W 118°12'0 0.0
2018-Feb-15 21:00N 33°46' W 118°12'0 0.0
2018-Feb-15 20:30N 33°46' W 118°12'0 0.0
2018-Feb-15 20:00N 33°46' W 118°12'0 0.0
2018-Feb-15 05:10N 33°46' W 118°12'1 4.7
2018-Feb-15 05:00N 33°45' W 118°11'1 0.2
2018-Feb-15 01:46N 33°46' W 118°12'0 0.0
2018-Feb-15 01:30N 33°46' W 118°12'0 0.0
2018-Feb-15 01:00N 33°46' W 118°12'0 0.0
2018-Feb-15 00:30N 33°46' W 118°12'0 0.0
2018-Feb-15 00:00N 33°46' W 118°12'0 0.0
2018-Feb-14 23:30N 33°46' W 118°12'0 0.0
2018-Feb-14 23:00N 33°46' W 118°12'0 0.0
2018-Feb-14 22:30N 33°46' W 118°12'0 0.0
2018-Feb-14 22:00N 33°46' W 118°12'0 0.0
2018-Feb-14 21:30N 33°46' W 118°12'0 0.0
2018-Feb-14 21:00N 33°46' W 118°12'0 0.0
2018-Feb-14 20:30N 33°46' W 118°12'0 0.0
2018-Feb-14 20:00N 33°46' W 118°12'0 0.0
2018-Feb-14 19:30N 33°46' W 118°12'0 0.0
2018-Feb-14 19:00N 33°46' W 118°12'0 0.0
2018-Feb-14 18:30N 33°46' W 118°12'0 0.0
2018-Feb-14 18:00N 33°46' W 118°12'0 0.0
2018-Feb-14 17:30N 33°46' W 118°12'0 0.0
2018-Feb-14 02:48N 33°46' W 118°12'0 0.0
2018-Feb-14 02:30N 33°46' W 118°12'0 0.0
2018-Feb-14 02:00N 33°46' W 118°12'0 0.0
2018-Feb-14 01:30N 33°46' W 118°12'0 0.0
2018-Feb-14 01:00N 33°46' W 118°12'0 0.0
2018-Feb-14 00:30N 33°46' W 118°12'0 0.0
2018-Feb-14 00:00N 33°46' W 118°12'0 0.0
2018-Feb-13 23:30N 33°46' W 118°12'0 1.0
2018-Feb-13 23:00N 33°45' W 118°11'5 9.1
2018-Feb-13 22:30N 33°44' W 118°16'0 0.1
2018-Feb-13 22:00N 33°44' W 118°17'0 0.1
2018-Feb-13 21:30N 33°44' W 118°16'1 2.7
2018-Feb-13 21:00N 33°45' W 118°16'2 3.9
2018-Feb-13 20:30N 33°43' W 118°16'0 0.3
2018-Feb-13 20:00N 33°43' W 118°16'1 2.6
2018-Feb-13 19:30N 33°44' W 118°17'1 2.5
2018-Feb-13 19:00N 33°46' W 118°16'2 3.9
2018-Feb-13 18:30N 33°44' W 118°15'1 2.7
2018-Feb-13 18:00N 33°44' W 118°17'0 0.0
2018-Feb-13 17:30N 33°44' W 118°17'4 8.4
2018-Feb-13 17:00N 33°44' W 118°12'2 4.0
2018-Feb-13 16:30N 33°46' W 118°12'0 0.0
2018-Feb-12 02:42N 33°46' W 118°12'0 0.0
2018-Feb-12 02:30N 33°46' W 118°12'0 0.0
2018-Feb-12 02:00N 33°46' W 118°12'0 0.4
2018-Feb-12 01:30N 33°46' W 118°12'611.6
2018-Feb-12 01:00N 33°41' W 118°16'2 2.9
2018-Feb-12 00:23N 33°40' W 118°15'1 3.5
2018-Feb-12 00:00N 33°40' W 118°16'510.2
2018-Feb-11 23:31N 33°44' W 118°11'2 4.4
2018-Feb-11 23:00N 33°46' W 118°12'2 3.3
2018-Feb-11 22:30N 33°44' W 118°11'714.0
2018-Feb-11 22:00N 33°42' W 118°19'0 0.5
2018-Feb-11 21:30N 33°42' W 118°18'4 8.5
2018-Feb-11 21:00N 33°39' W 118°15'713.8
2018-Feb-11 20:30N 33°44' W 118°10'2 3.4
2018-Feb-11 20:00N 33°46' W 118°12'0 0.0
2018-Feb-11 19:30N 33°46' W 118°12'0 0.0
2018-Feb-11 19:00N 33°46' W 118°12'0 0.0
2018-Feb-11 03:14N 33°46' W 118°12'0 0.0
2018-Feb-11 02:59N 33°46' W 118°12'0 0.0
2018-Feb-11 02:30N 33°46' W 118°12'0 0.0
2018-Feb-11 02:00N 33°46' W 118°12'  
Track history (hours):
 
Tides and Currents Weather Stations Pressure Air Temp Water Temp Dewpoint Dewpoint Depression Visibility Wind Speed Wind Dir Waves Ship Positions

La Espada

Owner: Harbor Breeze Cruises, Inc., Rancho Palos Verdes, CA. More information available from US FCC via Universal Licensing System and Coast Guard Vessel Documentation Center.

Last reported at 2018-Feb-21 01:50 UTC. Time now 2018-Feb-22 06:55 UTC.
Position N 33°46' W 118°12'.

Length 25 m.

MMSI: 367724740.

Date/timePositionNaut miles runAvg speedWind from/ knotsBaromVisibWave heightAir tempDewpointWater temp
2018-Feb-21 01:50N 33°46' W 118°12'411.1
2018-Feb-21 01:30N 33°42' W 118°11'7 6.4
2018-Feb-21 00:22N 33°41' W 118°19'410.0
2018-Feb-21 00:00N 33°42' W 118°16'5 8.1
2018-Feb-20 23:26N 33°45' W 118°11'1 2.1
2018-Feb-20 23:00N 33°46' W 118°12'2 4.5
2018-Feb-20 22:30N 33°44' W 118°11'714.6
2018-Feb-20 22:00N 33°36' W 118°12'3 4.8
2018-Feb-20 21:26N 33°37' W 118°15'4 8.9
2018-Feb-20 21:00N 33°39' W 118°11'5 9.4
2018-Feb-20 20:30N 33°44' W 118°11'2 3.6
2018-Feb-20 20:01N 33°46' W 118°12'0 0.0
2018-Feb-20 19:31N 33°46' W 118°12'2 4.2
2018-Feb-20 19:00N 33°44' W 118°12'4 7.9
2018-Feb-20 18:30N 33°44' W 118°17'0 0.0
2018-Feb-20 18:00N 33°44' W 118°17'4 8.7
2018-Feb-20 17:30N 33°44' W 118°11'2 0.1
2018-Feb-20 01:48N 33°46' W 118°12'0 1.5
2018-Feb-20 01:30N 33°45' W 118°11'4 8.9
2018-Feb-20 01:01N 33°41' W 118°12'4 7.7
2018-Feb-20 00:30N 33°42' W 118°16'0 0.5
2018-Feb-20 00:00N 33°43' W 118°16'4 8.9
2018-Feb-19 23:30N 33°44' W 118°11'2 3.4
2018-Feb-19 23:00N 33°46' W 118°12'0 0.5
2018-Feb-19 22:30N 33°46' W 118°12'4 8.8
2018-Feb-19 22:00N 33°43' W 118°16'1 1.6
2018-Feb-19 21:30N 33°42' W 118°16'1 1.6
2018-Feb-19 21:01N 33°43' W 118°15'4 7.7
2018-Feb-19 20:28N 33°45' W 118°11'1 2.2
2018-Feb-19 20:01N 33°46' W 118°12'5 9.1
2018-Feb-19 19:30N 33°43' W 118°07'3 5.2
2018-Feb-19 19:00N 33°42' W 118°10'5 9.3
2018-Feb-19 18:30N 33°43' W 118°15'0 0.4
2018-Feb-19 18:00N 33°43' W 118°15'4 7.9
2018-Feb-19 17:31N 33°44' W 118°11'2 3.3
2018-Feb-19 17:00N 33°46' W 118°12'0 0.0
2018-Feb-19 16:30N 33°46' W 118°12'0 0.0
2018-Feb-19 02:07N 33°46' W 118°12'1 4.2
2018-Feb-19 01:58N 33°45' W 118°11'614.2
2018-Feb-19 01:30N 33°42' W 118°18'6 8.6
2018-Feb-19 00:51N 33°44' W 118°24'513.1
2018-Feb-19 00:30N 33°41' W 118°20'4 7.2
2018-Feb-19 00:00N 33°41' W 118°15'611.1
2018-Feb-18 23:30N 33°45' W 118°11'1 1.5
2018-Feb-18 23:00N 33°46' W 118°12'2 3.7
2018-Feb-18 22:30N 33°44' W 118°11'713.6
2018-Feb-18 22:00N 33°38' W 118°15'2 4.8
2018-Feb-18 21:30N 33°40' W 118°17'1 2.4
2018-Feb-18 21:00N 33°40' W 118°16'612.0
2018-Feb-18 20:31N 33°44' W 118°11'2 3.5
2018-Feb-18 20:00N 33°46' W 118°12'0 0.4
2018-Feb-18 19:30N 33°46' W 118°12'4 8.7
2018-Feb-18 19:00N 33°42' W 118°15'5 9.7
2018-Feb-18 18:30N 33°37' W 118°15'2 3.1
2018-Feb-18 18:00N 33°39' W 118°13'611.8
2018-Feb-18 17:30N 33°44' W 118°11'2 3.6
2018-Feb-18 16:59N 33°46' W 118°12'0 0.0
2018-Feb-18 16:30N 33°46' W 118°12'0 0.0
2018-Feb-18 01:51N 33°46' W 118°12'3 8.2
2018-Feb-18 01:31N 33°43' W 118°13'714.5
2018-Feb-18 01:00N 33°43' W 118°22'2 3.9
2018-Feb-18 00:30N 33°44' W 118°24'510.4
2018-Feb-18 00:00N 33°42' W 118°18'612.4
2018-Feb-17 23:30N 33°44' W 118°11'2 3.9
2018-Feb-17 23:00N 33°46' W 118°12'3 6.5
2018-Feb-17 22:30N 33°43' W 118°14'815.7
2018-Feb-17 22:00N 33°43' W 118°23'1 1.5
2018-Feb-17 21:30N 33°43' W 118°23'713.4
2018-Feb-17 21:00N 33°40' W 118°16'713.0
2018-Feb-17 20:30N 33°45' W 118°12'0 0.6
2018-Feb-17 20:00N 33°46' W 118°12'713.6
2018-Feb-17 19:31N 33°39' W 118°11'3 5.0
2018-Feb-17 19:00N 33°37' W 118°13'2 4.2
2018-Feb-17 18:30N 33°38' W 118°15'3 6.3
2018-Feb-17 18:00N 33°40' W 118°12'4 8.9
2018-Feb-17 17:30N 33°44' W 118°11'2 3.0
2018-Feb-17 16:59N 33°46' W 118°12'0 0.0
2018-Feb-17 16:30N 33°46' W 118°12'0 0.0
2018-Feb-16 20:31N 33°46' W 118°12'0 0.0
2018-Feb-16 20:30N 33°46' W 118°12'2 4.7
2018-Feb-16 20:00N 33°44' W 118°13'3 6.9
2018-Feb-16 19:30N 33°44' W 118°17'1 1.4
2018-Feb-16 19:01N 33°44' W 118°16'1 1.4
2018-Feb-16 18:30N 33°44' W 118°17'0 0.0
2018-Feb-16 18:00N 33°44' W 118°17'510.0
2018-Feb-16 17:30N 33°44' W 118°11'2 3.0
2018-Feb-16 17:00N 33°46' W 118°12'0 0.0
2018-Feb-16 01:48N 33°46' W 118°12'0 0.0
2018-Feb-16 01:30N 33°46' W 118°12'0 0.0
2018-Feb-16 01:00N 33°46' W 118°12'0 0.0
2018-Feb-16 00:30N 33°46' W 118°12'0 0.0
2018-Feb-16 00:00N 33°46' W 118°12'0 0.0
2018-Feb-15 23:31N 33°46' W 118°12'0 0.0
2018-Feb-15 23:00N 33°46' W 118°12'0 0.0
2018-Feb-15 22:30N 33°46' W 118°12'0 0.0
2018-Feb-15 22:00N 33°46' W 118°12'0 0.0
2018-Feb-15 21:30N 33°46' W 118°12'0 0.0
2018-Feb-15 21:00N 33°46' W 118°12'0 0.0
2018-Feb-15 20:30N 33°46' W 118°12'0 0.0
2018-Feb-15 20:00N 33°46' W 118°12'0 0.0
2018-Feb-15 05:10N 33°46' W 118°12'1 4.7
2018-Feb-15 05:00N 33°45' W 118°11'1 0.2
2018-Feb-15 01:46N 33°46' W 118°12'0 0.0
2018-Feb-15 01:30N 33°46' W 118°12'0 0.0
2018-Feb-15 01:00N 33°46' W 118°12'0 0.0
2018-Feb-15 00:30N 33°46' W 118°12'0 0.0
2018-Feb-15 00:00N 33°46' W 118°12'0 0.0
2018-Feb-14 23:30N 33°46' W 118°12'0 0.0
2018-Feb-14 23:00N 33°46' W 118°12'0 0.0
2018-Feb-14 22:30N 33°46' W 118°12'0 0.0
2018-Feb-14 22:00N 33°46' W 118°12'0 0.0
2018-Feb-14 21:30N 33°46' W 118°12'0 0.0
2018-Feb-14 21:00N 33°46' W 118°12'0 0.0
2018-Feb-14 20:30N 33°46' W 118°12'0 0.0
2018-Feb-14 20:00N 33°46' W 118°12'0 0.0
2018-Feb-14 19:30N 33°46' W 118°12'0 0.0
2018-Feb-14 19:00N 33°46' W 118°12'0 0.0
2018-Feb-14 18:30N 33°46' W 118°12'0 0.0
2018-Feb-14 18:00N 33°46' W 118°12'0 0.0
2018-Feb-14 17:30N 33°46' W 118°12'0 0.0
2018-Feb-14 02:48N 33°46' W 118°12'0 0.0
2018-Feb-14 02:30N 33°46' W 118°12'0 0.0
2018-Feb-14 02:00N 33°46' W 118°12'0 0.0
2018-Feb-14 01:30N 33°46' W 118°12'0 0.0
2018-Feb-14 01:00N 33°46' W 118°12'0 0.0
2018-Feb-14 00:30N 33°46' W 118°12'0 0.0
2018-Feb-14 00:00N 33°46' W 118°12'0 0.0
2018-Feb-13 23:30N 33°46' W 118°12'0 1.0
2018-Feb-13 23:00N 33°45' W 118°11'5 9.1
2018-Feb-13 22:30N 33°44' W 118°16'0 0.1
2018-Feb-13 22:00N 33°44' W 118°17'0 0.1
2018-Feb-13 21:30N 33°44' W 118°16'1 2.7
2018-Feb-13 21:00N 33°45' W 118°16'2 3.9
2018-Feb-13 20:30N 33°43' W 118°16'0 0.3
2018-Feb-13 20:00N 33°43' W 118°16'1 2.6
2018-Feb-13 19:30N 33°44' W 118°17'1 2.5
2018-Feb-13 19:00N 33°46' W 118°16'2 3.9
2018-Feb-13 18:30N 33°44' W 118°15'1 2.7
2018-Feb-13 18:00N 33°44' W 118°17'0 0.0
2018-Feb-13 17:30N 33°44' W 118°17'4 8.4
2018-Feb-13 17:00N 33°44' W 118°12'2 4.0
2018-Feb-13 16:30N 33°46' W 118°12'0 0.0
2018-Feb-12 02:42N 33°46' W 118°12'0 0.0
2018-Feb-12 02:30N 33°46' W 118°12'0 0.0
2018-Feb-12 02:00N 33°46' W 118°12'0 0.4
2018-Feb-12 01:30N 33°46' W 118°12'611.6
2018-Feb-12 01:00N 33°41' W 118°16'2 2.9
2018-Feb-12 00:23N 33°40' W 118°15'1 3.5
2018-Feb-12 00:00N 33°40' W 118°16'510.2
2018-Feb-11 23:31N 33°44' W 118°11'2 4.4
2018-Feb-11 23:00N 33°46' W 118°12'2 3.3
2018-Feb-11 22:30N 33°44' W 118°11'714.0
2018-Feb-11 22:00N 33°42' W 118°19'0 0.5
2018-Feb-11 21:30N 33°42' W 118°18'4 8.5
2018-Feb-11 21:00N 33°39' W 118°15'713.8
2018-Feb-11 20:30N 33°44' W 118°10'2 3.4
2018-Feb-11 20:00N 33°46' W 118°12'0 0.0
2018-Feb-11 19:30N 33°46' W 118°12'0 0.0
2018-Feb-11 19:00N 33°46' W 118°12'0 0.0
2018-Feb-11 03:14N 33°46' W 118°12'0 0.0
2018-Feb-11 02:59N 33°46' W 118°12'0 0.0
2018-Feb-11 02:30N 33°46' W 118°12'0 0.0
2018-Feb-11 02:00N 33°46' W 118°12'  

Dump ship's entire track history